DELTA 1 R/B(2) *, 2971

Orbit data source: Space-Track

DELTA 1 R/B(2) *, 2971 is space debris in HEO originally from a launch on Thu, 28 Sep 1967 UTC launched from the Air Force Eastern Test Range (AFETR). Debris objects in space refer to the collection of defunct objects orbiting the Earth. Examples of debris include non-operational satellites, rocket bodies, and fragments generated from explosions, collisions, or faulty payload assembly.

Loading next visibility...
Identifier
2971, 1967-094C
Orbit
HEO
Country
Flag of USUS
Related business
Manufacturer
UTC
Mission
Spacecraft
Bus & Motor
FW4, Unknown motor
Mass
~40 kg wet, ~40 kg dry
Launch date (UTC)
1967-09-28 (58 years ago)
Launch vehicle
Unknown
Launch site
Air Force Eastern Test Range (AFETR)
Object type
Payload
Rocket body
Debris
Shape & HBR
Unknown
Radar Cross Section
Large (>1 m²)

Expand to show TLE details & history
Last TLE update: 18 hours ago

TLE from 18 hours ago
0 DELTA 1 R/B(2) *
1  2971U 67094C   26036.85548683  .00004048  00000-0  21030-2 0  9993
2  2971  28.2166 251.8985 6544376 357.4855   0.4515  3.21936743555598
Epoch: 2026-02-05T20:31Z
TLE epoch observation values (Epoch: 2026-02-05T20:31:54.062Z)
Latitude
0.00006°
Longitude
167.93207°
Altitude
326.298 km
Speed
9.916 km/s
True Right ascension
16h 47m 38s
True Declination
0° 00' 00"
Sunlit
Object was in daylight at epoch
Visualization orbit readout
Latitude
Unknown
Longitude
Unknown
Altitude
Unknown
Speed
Unknown
Apparent Right ascension
Unknown
Apparent Declination
Unknown
Sunlit
N/A
Visualization observer readout
Local Sidereal Time
17:08:05
Azimuth
Unknown
Elevation
Unknown
Doppler factor
Unknown
Orbital elements
Apogee altitude
25,680.901 km
Perigee altitude
318.035 km
Semi-major axis
19,377.605 km
Eccentricity
0.65444
Inclination
28.2166°
RAAN
251.8985°
Arg. of periapsis
357.4855°
True anomaly
2.85792°
Mean anomaly
0.4515°
Eccentric anomaly
1.30635°
Mean motion
0.80462 °/min
Orbital period
447.41 mins
BSTAR
0.002103
Loading maneuver chart data...
Computing Atmospheric mass density...
Loading historical data...
Loading historical data...
Loading historical data...
Loading historical data...
Loading historical data...
Loading historical data...
Loading historical data...
Other satellites on launch #94 in the year 1967 (1967-09-28 UTC)

Documentation

Showing up to 5 results
|